Bei Facebook empfehlenBei Twitter postenGoogle plusPinterest

Das Wetter im Erzgebirge am 31.01.2017

Wetter und Klima am 31.01.2017 Holzhau im Erzgebirge (630m ü.NN)
Letzte gemessene Temperatur und Uhrzeit der Messung23:45:00 Uhr-4.70 °C
Temperatur (Maximum / Höchstwert) und Uhrzeit der Messung15:30:00 Uhr-3.20 °C
Temperatur (Minimum / Tiefstwert) und Uhrzeit der Messung06:15:00-6.80 °C
Errechneter Absolutwert der Temperaturschwankungen zwischen Tmin und Tmax des Tages3.60 K
Errechnete Tagesmitteltemperatur-5.15625 °C
Gesamt - Niederschlag des Tages (in flüssiger Form)0.00 Liter / m²
Luftdruck (Maximum / Höchstwert) und Zeitpunkt der Messung23:45:00 Uhr1013.10 hPa
Luftdruck (Minimum / Tiefstwert) und Zeitpunkt der Messung05:00:00 Uhr1008.20 hPa
Errechneter Absolutwert der Luftdruckschwankungen des Tages4.90 hPa
Höchste gemessene Windgeschwindigkeit und Uhrzeit der Messung01:30:00 Uhr9.72 km/h
Errechnete Windhäufigkeit in Relation zu den Messwerten des Tages26.04167 %
Niedrigste Windkühle (Windchill) und Zeitpunkt der Messung04:00:00 Uhr-9.30 °C
Taupunkt (Maximum / Höchstwert) und Uhrzeit der Messung15:30:00 Uhr-5.80 °C
Taupunkt (Minimum / Tiefstwert) und Uhrzeit der Messung06:15:00-8.80 °C
Anzahl der automatisch eingelesenen Messwerte 96

Detaillierte Wetter- und Klima- Messwerte für den 31.01.2017 in Holzhau im Erzgebirge (630m ü.NN)
ZeitTemperaturLuftdruckRel. LuftfeuchteWindWindrichtungWindchillTaupunktNiederschlag l/m²
23:45:00-4.70 °C1013.10 hPa91.00 %-6.10 °C 
23:30:00-4.70 °C1013.10 hPa91.00 %-6.10 °C 
23:15:00-4.70 °C1013.10 hPa90.00 %-6.30 °C 
23:00:00-4.70 °C1012.90 hPa90.00 %-6.30 °C 
22:45:00-4.80 °C1013.10 hPa90.00 %-6.40 °C 
22:30:00-4.80 °C1012.90 hPa90.00 %-6.40 °C 
22:15:00-4.80 °C1012.80 hPa90.00 %-6.40 °C 
22:00:00-4.90 °C1012.60 hPa89.00 %-6.60 °C 
21:45:00-4.90 °C1012.70 hPa89.00 %-6.60 °C 
21:30:00-4.90 °C1012.50 hPa89.00 %-6.60 °C 
21:15:00-4.90 °C1012.50 hPa89.00 %-6.60 °C 
21:00:00-5.00 °C1012.30 hPa89.00 %-6.70 °C 
20:45:00-5.10 °C1012.40 hPa89.00 %-6.80 °C 
20:30:00-5.10 °C1012.40 hPa89.00 %-6.80 °C 
20:15:00-5.10 °C1012.40 hPa89.00 %-6.80 °C 
20:00:00-5.10 °C1012.30 hPa88.00 %-7.00 °C 
19:45:00-5.10 °C1012.40 hPa88.00 %-7.00 °C 
19:30:00-5.10 °C1012.30 hPa88.00 %-7.00 °C 
19:15:00-5.20 °C1012.20 hPa88.00 %-7.10 °C 
19:00:00-5.20 °C1012.10 hPa88.00 %-7.10 °C 
18:45:00-5.30 °C1012.00 hPa88.00 %-7.20 °C 
18:30:00-5.40 °C1012.00 hPa88.00 %-7.30 °C 
18:15:00-5.40 °C1011.90 hPa88.00 %-7.30 °C 
18:00:00-5.50 °C1011.80 hPa87.00 %-7.50 °C 
17:45:00-5.40 °C1011.40 hPa87.00 %-7.40 °C 
17:30:00-5.40 °C1011.60 hPa86.00 %-7.60 °C 
17:15:00-5.20 °C1011.50 hPa86.00 %-7.40 °C 
17:00:00-5.00 °C1011.50 hPa86.00 %-7.20 °C 
16:45:00-4.70 °C1011.40 hPa85.00 %-7.10 °C 
16:30:00-4.60 °C1011.40 hPa85.00 %-7.00 °C 
16:15:00-4.20 °C1011.20 hPa85.00 %-6.60 °C 
16:00:00-3.90 °C1011.00 hPa84.00 %-6.50 °C 
15:45:00-3.50 °C1011.10 hPa84.00 %-6.10 °C 
15:30:00-3.20 °C1010.80 hPa84.00 %-5.80 °C 
15:15:00-3.20 °C1010.70 hPa83.00 %-6.00 °C 
15:00:00-3.20 °C1010.50 hPa84.00 %-5.80 °C 
14:45:00-3.60 °C1010.50 hPa84.00 %-6.20 °C 
14:30:00-3.70 °C1010.40 hPa85.00 %-6.10 °C 
14:15:00-4.10 °C1010.40 hPa86.00 %-6.30 °C 
14:00:00-4.40 °C1010.40 hPa85.00 %-6.80 °C 
13:45:00-4.40 °C1010.40 hPa85.00 %-6.80 °C 
13:30:00-4.20 °C1010.40 hPa85.00 %-6.60 °C 
13:15:00-4.20 °C1010.30 hPa84.00 %-6.80 °C 
13:00:00-4.10 °C1010.30 hPa84.00 %-6.70 °C 
12:45:00-3.90 °C1010.30 hPa83.00 %-6.70 °C 
12:30:00-3.90 °C1010.10 hPa83.00 %-6.70 °C 
12:15:00-3.70 °C1010.20 hPa83.00 %1.08 km/hONO-3.70 °C-6.50 °C 
12:00:00-3.70 °C1010.10 hPa84.00 %-6.30 °C 
11:45:00-3.90 °C1010.10 hPa84.00 %2.52 km/hOSO-3.90 °C-6.50 °C 
11:30:00-4.10 °C1010.00 hPa85.00 %-6.50 °C 
11:15:00-4.80 °C1009.80 hPa86.00 %-7.00 °C 
11:00:00-5.10 °C1009.90 hPa86.00 %-7.30 °C 
10:45:00-5.10 °C1009.80 hPa87.00 %4.32 km/hOSO-5.10 °C-7.10 °C 
10:30:00-5.20 °C1009.70 hPa86.00 %-7.40 °C 
10:15:00-5.10 °C1009.60 hPa86.00 %-7.30 °C 
10:00:00-4.80 °C1009.40 hPa87.00 %-6.80 °C 
09:45:00-5.10 °C1009.30 hPa88.00 %-7.00 °C 
09:30:00-5.70 °C1009.30 hPa88.00 %1.80 km/hO-5.70 °C-7.60 °C 
09:15:00-6.10 °C1009.20 hPa89.00 %-7.80 °C 
09:00:00-6.50 °C1009.50 hPa89.00 %4.32 km/hOSO-6.50 °C-8.20 °C 
08:45:00-6.70 °C1009.40 hPa88.00 %-8.60 °C 
08:30:00-6.70 °C1009.40 hPa88.00 %-8.60 °C 
08:15:00-6.60 °C1009.40 hPa88.00 %2.52 km/hSO-6.60 °C-8.50 °C 
08:00:00-6.60 °C1008.90 hPa89.00 %3.96 km/hSO-6.60 °C-8.30 °C 
07:45:00-6.70 °C1008.80 hPa88.00 %-8.60 °C 
07:30:00-6.70 °C1008.90 hPa87.00 %-8.70 °C 
07:15:00-6.60 °C1008.80 hPa87.00 %-8.60 °C 
07:00:00-6.40 °C1008.90 hPa87.00 %-8.40 °C 
06:45:00-6.40 °C1008.80 hPa88.00 %1.44 km/hSO-6.40 °C-8.30 °C 
06:30:00-6.70 °C1008.70 hPa88.00 %2.16 km/hOSO-6.70 °C-8.60 °C 
06:15:00-6.80 °C1008.60 hPa87.00 %-8.80 °C 
06:00:00-6.80 °C1008.50 hPa87.00 %4.32 km/hOSO-6.80 °C-8.80 °C 
05:45:00-6.60 °C1008.60 hPa87.00 %1.80 km/hS-6.60 °C-8.60 °C 
05:30:00-6.40 °C1008.60 hPa87.00 %4.32 km/hOSO-6.40 °C-8.40 °C 
05:15:00-6.20 °C1008.40 hPa87.00 %1.44 km/hO-6.20 °C-8.20 °C 
05:00:00-6.20 °C1008.20 hPa87.00 %-8.20 °C 
04:45:00-6.10 °C1008.40 hPa87.00 %2.16 km/hSO-6.10 °C-8.10 °C 
04:30:00-6.20 °C1008.50 hPa87.00 %-8.20 °C 
04:15:00-6.20 °C1008.40 hPa87.00 %-8.20 °C 
04:00:00-6.10 °C1008.40 hPa87.00 %6.48 km/hNNO-9.30 °C-8.10 °C 
03:45:00-6.10 °C1008.20 hPa87.00 %3.60 km/hSSO-6.10 °C-8.10 °C 
03:30:00-5.70 °C1008.20 hPa87.00 %1.80 km/hSSO-5.70 °C-7.70 °C 
03:15:00-5.70 °C1008.40 hPa88.00 %5.04 km/hNO-8.10 °C-7.60 °C 
03:00:00-5.80 °C1008.20 hPa88.00 %3.24 km/hONO-5.80 °C-7.70 °C 
02:45:00-5.90 °C1008.60 hPa88.00 %7.20 km/hSO-9.30 °C-7.80 °C 
02:30:00-5.90 °C1008.70 hPa88.00 %-7.80 °C 
02:15:00-5.80 °C1008.60 hPa87.00 %-7.80 °C 
02:00:00-5.60 °C1008.70 hPa87.00 %-7.60 °C 
01:45:00-5.20 °C1008.50 hPa86.00 %-7.40 °C 
01:30:00-5.10 °C1008.50 hPa86.00 %9.72 km/hOSO-9.30 °C-7.30 °C 
01:15:00-4.70 °C1008.20 hPa86.00 %9.00 km/hSO-8.60 °C-6.90 °C 
01:00:00-4.60 °C1008.20 hPa86.00 %6.48 km/hSSO-7.50 °C-6.80 °C 
00:45:00-4.40 °C1008.40 hPa87.00 %-6.50 °C 
00:30:00-4.50 °C1008.40 hPa86.00 %-6.70 °C 
00:15:00-4.50 °C1008.30 hPa87.00 %3.24 km/hOSO-4.50 °C-6.60 °C 
00:00:00-4.50 °C1008.60 hPa87.00 %3.60 km/hNNO-4.50 °C-6.60 °C 

Permanenter Link zu dieser Seite: Wetter im Erzgebirge am 31.01.2017
Performance-Info: Die Erstellung der Seite / Statistik(en) / Tabelle(n) erforderte 5 Datenbankserver-Abfrage(n) und dauerte 99 Millisekunden. (Dieser Messwert ist von der Gesamt-Auslastung des Servers abhängig.)
Erzgebirge - Wetter | Erzgebirge - Wetter (Mobilgeräte) | Komplette Klimadatenbank